{"data":{"norad_id":45602,"intl_designator":"2020-028A","name":"XINGYUN-2 01","alt_names":[],"object_type":"PAYLOAD","status":"ACTIVE","operator":null,"country":"PRC","launch_date":"2020-05-12","launch_site_code":"JSC","launch_vehicle":null,"mission":null,"orbit_class":"UNKNOWN","rcs_meters":null,"size_class":null,"mass_kg":null,"dimensions":null,"purposes":[],"wikipedia_slug":null,"has_3d_model":false,"image_url":null,"decayed_at":null,"tle_current":{"epoch":"2026-09-20T04:14:25.031040Z","epoch_age_seconds":95745,"freshness":"FRESH","line1":"1 45602U 20028A   26263.17667860  .00001890  00000+0  11332-3 0  9999","line2":"2 45602  97.4962 253.7583 0007514 231.5416 128.5141 15.12151084349194","mean_motion":15.12151084,"eccentricity":0.0007514,"inclination_deg":97.4962,"raan_deg":253.7583,"arg_perigee_deg":231.5416,"mean_anomaly_deg":128.5141,"bstar":0.00011332,"rev_number":34919,"period_min":95.228579686023,"perigee_km":524.45069701557,"apogee_km":534.83170609686,"semimajor_km":6907.7782015562,"source":"CELESTRAK","updated_at":"2026-09-20T09:00:14.699649Z"}}}